Regional Weather Roundup
Issued by NWS Sterling, VA

Home | Current Version | Previous Version | Graphics & Text | Print | Product List | Glossary On
Versions: 1 2 3 4 5 6 7 8 9 10 11 12 13 14 15 16 17 18 19 20 21 22 23 24 25 26 27 28 29 30 31 32 33 34 35 36 37 38 39 40 41 42 43 44 45 46 47 48 49 50
000
ASUS41 KLWX 271611
RWRLWX

REGIONAL WEATHER ROUNDUP
NATIONAL WEATHER SERVICE BALTIMORE MD/WASHINGTON DC
1200 PM EDT MON APR 27 2015

Note: "FAIR" indicates few or no clouds below 12,000 feet
with no significant weather and/or obstructions to visibility.
 TC=TEMPERATURE CELSIUS

 * =Non NWS site. Station does not report precipitation (e.g. rain,
    snow, etc.), thunder, or fog.

DCZ001-MDZ009-015-VAZ040>042-051-053>054-271700-
WASHINGTON METRO

CITY           SKY/WX    TMP DP  RH WIND       PRES   REMARKS
WASHINGTON NAT PTSUNNY   60  36  40 N10G21    29.80S
DULLES         PTSUNNY   57  35  43 NW9       29.81S
ANDREWS AFB    PTSUNNY   56  35  44 NW12      29.78S
FT BELVOIR     PTSUNNY   58  35  42 NW6       29.80S
COLLEGE PARK*  PTSUNNY   55  36  47 N12       29.79F
LEESBURG*      PTSUNNY   55  37  50 NW12G20   29.82S
MANASSAS*      CLOUDY    57  34  41 NW14G21   29.81S
GAITHERSBURG*  SUNNY     55  36  47 N5        29.84S

$$

MDZ006>007-011-014-271700-
BALTIMORE METRO

CITY           SKY/WX    TMP DP  RH WIND       PRES   REMARKS
BWI AIRPORT    PTSUNNY   57  35  43 W7        29.78S
MD SCIENCE CTR   N/A     58  32  37 MISG      29.79S
MARTIN STATE   PTSUNNY   59  36  41 W13       29.79S
ANNAPOLIS      CLOUDY    56  34  43 NW10      29.78S
FORT MEADE*    CLOUDY    55  34  44 NW8       29.82R

$$

MDZ012-015-019>023-271700-
MARYLAND EASTERN SHORE

CITY           SKY/WX    TMP DP  RH WIND       PRES   REMARKS
OCEAN CITY     MOSUNNY   59  32  36 N13       29.75S
SALISBURY      SUNNY     60  34  37 NW13      29.76S
BAY BRIDGE AP*   N/A    N/A N/A N/A N8        29.79S
CAMBRIDGE*     MOSUNNY   59  36  41 NW9       29.78R
EASTON*        MOSUNNY   59  37  44 N12G23    29.82R

$$

MDZ017>025-271700-
SOUTHERN MARYLAND

CITY           SKY/WX    TMP DP  RH WIND       PRES   REMARKS
PATUXENT RIVER MOSUNNY   56  36  47 NE9       29.78S
ST INIGOES     PTSUNNY   58  35  42 W12       29.78S
LEONARDTOWN*   CLOUDY    57  30  35 NW7       29.80S

$$

MDZ003>005-271700-
NORTH CENTRAL MARYLAND

CITY           SKY/WX    TMP DP  RH WIND       PRES   REMARKS
FREDERICK*     MOSUNNY   61  30  31 NW12      29.82S
HAGERSTOWN APT CLOUDY    53  31  42 NW14      29.81R
WESTMINSTER*   NOT AVBL

$$

MDZ501>502-271700-
WESTERN MARYLAND

CITY           SKY/WX    TMP DP  RH WIND       PRES   REMARKS
OAKLAND*       CLOUDY    37  34  87 W9G16     29.84R
CUMBERLAND*    PTSUNNY   52  32  46 NW5G17    29.89R

$$

VAZ025>031-271700-
SHENANDOAH VALLEY

CITY           SKY/WX    TMP DP  RH WIND       PRES   REMARKS
WINCHESTER*    CLOUDY    54  28  37 NW15      29.83R
FRONT ROYAL*   CLOUDY    52  32  46 NW9G17    29.82R
LURAY*         CLOUDY    55  36  47 W14G21    29.84R
NEW MARKET*    PTSUNNY   54  34  47 N10G16    29.83R
STAUNTON*      MOSUNNY   57  32  38 NW5       29.84S
WAYNESBORO*    FAIR      54  33  44 W7        29.82F

$$

WVZ021-048>050-054>055-271700-
EASTERN WEST VIRGINIA PANHANDLE

CITY           SKY/WX    TMP DP  RH WIND       PRES   REMARKS
MARTINSBURG    CLOUDY    53  31  42 NW10      29.83R
PETERSBURG*    CLOUDY    49  30  48 NW12      29.90R

$$

VAZ036>039-050-271700-
CENTRAL FOOTHILLS

CITY           SKY/WX    TMP DP  RH WIND       PRES   REMARKS
CHARLOTTESVILL SUNNY     58  32  37 VRB5      29.82S
CULPEPER*      PTSUNNY   61  32  33 N9        29.82R
ORANGE*        PTSUNNY   59  32  36 CALM      29.83S
GORDONSVILLE*  FAIR      58  32  37 N5        29.81S
WARRENTON*     PTSUNNY   59  36  43 NW12G17   29.81S

$$

VAZ055>057-271700-
NORTH AND CENTRAL PIEDMONT

CITY           SKY/WX    TMP DP  RH WIND       PRES   REMARKS
FREDERICKSBRG* MOSUNNY   60  33  36 NW9G16    29.80S
STAFFORD*      CLOUDY    56  32  39 NW10      29.85R

$$

NCZ024-NYZ072-PAZ021-071-VAZ022-071-271700-
OTHER REGIONAL OBSERVATIONS

CITY           SKY/WX    TMP DP  RH WIND       PRES   REMARKS
NEW YORK CITY  PTSUNNY   59  28  30 VRB6      29.69F
PHILADELPHIA   PTSUNNY   58  34  40 N7        29.73F
PITTSBURGH     CLOUDY    48  34  58 W14       29.89R
ROANOKE        MOSUNNY   55  33  43 NW7G17    29.88S
RICHMOND       MOSUNNY   61  33  35 N9        29.80F
RALEIGH        MOSUNNY   63  40  42 VRB7      29.85S

$$

ANZ530>537-271700-
MARINE OBSERVATIONS

STATION/POSITION TIME  TEMP    WIND        PRES
                       AIR SEA DIR/SP/G
                 (UTC) (F)     (DEG/KT/KT) (MB)
THOMAS PT LIGHT  1600   54 53  350/  7/  8 1009.3R
BALT KEY BRIDGE  1500   53     310/  8/  9 1008.5R
COVE POINT       1500   52      20/  5/  7 1009.2S
LEWISETTA        1500   55 57              1008.5R
SOLOMONS ISLAND  1518      55                N/A
PINEY POINT      1500          310/ 12/ 13   N/A

$$




USA.gov is the U.S. government's official web portal to all federal, state and local government web resources and services.